Location: Marse
(42.1502°N, 110.9866°W)
Time: 01:20:17
(UTC+00:00)

ITAMSAT 1 - Pass Details

Date: 09 July 2022
Orbit: 784 x 795 km, 98.9° (Epoch: 07 August)

Event Time Altitude Azimuth Distance (km) Brightness Sun altitude
Rises 03:41:29 0° 207° (SSW) 3,263 10.7 -6.8°
Reaches altitude 10° 03:44:34 10° 227° (SW) 2,342 10.2 -7.3°
Maximum altitude 03:47:57 18° 268° (W) 1,881 10.3 -7.8°
Drops below altitude 10° 03:51:22 10° 310° (NW) 2,358 11.9 -8.2°
Sets 03:54:30 0° 329° (NNW) 3,295 12.5 -8.7°
